Bogalusa, LA

10:01 PM CDT on June 25, 2017 (GMT -0500)
Carr Memorial

Weather History for KBXA - March, 2014

Change the Weather History Date:

Saturday, March 8, 2014

  Actual Average Record
Temperature  
Mean Temperature 58 °F -  
Max Temperature 72 °F 68 °F 78 °F (2016)
Min Temperature 43 °F 45 °F 33 °F (2013)
Degree Days  
Heating Degree Days 8    
Growing Degree Days 8 (Base 50)    
Moisture  
Dew Point 47 °F    
Average Humidity 70    
Maximum Humidity 91    
Minimum Humidity 41    
Precipitation  
Precipitation 0.00 in - - ()
Sea Level Pressure  
Sea Level Pressure 30.14 in    
Wind  
Wind Speed 2 mph (South)    
Max Wind Speed 12 mph    
Max Gust Speed 17 mph    
Visibility 9 miles    
Events      
Averages and records for this station are not official NWS values.
T = Trace of Precipitation, MM = Missing Value Source: NWS Daily Summary

Daily Weather History Graph

Daily Weather History Graph

Search for Another Location

Airport or City:

Trip Planner

Search our weather history database for the weather conditions in past years. The results will help you decide how hot, cold, wet, or windy it might be!

Date:

Astronomy

Mar. 08, 2014 Rise Set
Actual Time 6:17 AM CST 6:02 PM CST
Civil Twilight 5:53 AM CST 6:27 PM CST
Nautical Twilight 5:25 AM CST 6:55 PM CST
Astronomical Twilight 4:57 AM CST 7:23 PM CST
Moon 11:23 AM CST (3/8) 12:36 AM CST (3/8)
Length of Visible Light 12h 33m
Length of Day
11h 45m
First Quarter, 52% of the Moon is Illuminated
Mar 8
First Quarter
Mar 16
Full
Mar 23
Last Quarter
Mar 30
New
Apr 7
First Quarter

Hourly Weather History & Observations

Time (CST) Temp. Dew Point Humidity Pressure Visibility Wind Dir Wind Speed Gust Speed Precip Events Conditions
12:00 AM 47.3 °F 44.4 °F 90% 30.08 in 7.0 mi Calm Calm - N/A   Unknown
12:15 AM 46.6 °F 43.7 °F 90% 30.08 in 7.0 mi Calm Calm - N/A   Unknown
12:35 AM 46.8 °F 44.1 °F 90% 30.09 in 7.0 mi Calm Calm - N/A   Unknown
12:55 AM 46.6 °F 43.9 °F 90% 30.08 in 7.0 mi Calm Calm - N/A   Unknown
1:15 AM 46.4 °F 43.7 °F 90% 30.08 in 7.0 mi Calm Calm - N/A   Unknown
1:35 AM 46.4 °F 43.7 °F 90% 30.08 in 10.0 mi Calm Calm - N/A   Unknown
1:55 AM 45.5 °F 42.8 °F 90% 30.08 in 7.0 mi Calm Calm - N/A   Unknown
2:15 AM 45.1 °F 42.4 °F 90% 30.08 in 7.0 mi Calm Calm - N/A   Unknown
2:35 AM 45.0 °F 42.3 °F 90% 30.08 in 10.0 mi Calm Calm - N/A   Unknown
2:55 AM 44.6 °F 41.9 °F 90% 30.09 in 7.0 mi Calm Calm - N/A   Unknown
3:15 AM 44.4 °F 41.7 °F 90% 30.10 in 10.0 mi Calm Calm - N/A   Unknown
3:35 AM 43.9 °F 41.4 °F 91% 30.11 in 7.0 mi Calm Calm - N/A   Unknown
3:55 AM 44.6 °F 41.9 °F 90% 30.12 in 7.0 mi Calm Calm - N/A   Unknown
4:15 AM 44.6 °F 42.1 °F 91% 30.13 in 7.0 mi Calm Calm - N/A   Unknown
4:35 AM 45.0 °F 42.4 °F 91% 30.12 in 7.0 mi Calm Calm - N/A   Unknown
4:55 AM 43.9 °F 41.4 °F 91% 30.12 in 7.0 mi Calm Calm - N/A   Unknown
5:15 AM 43.9 °F 41.4 °F 91% 30.13 in 7.0 mi Calm Calm - N/A   Unknown
5:35 AM 43.7 °F 41.2 °F 91% 30.13 in 7.0 mi Calm Calm - N/A   Unknown
5:55 AM 43.5 °F 41.0 °F 91% 30.13 in 5.0 mi Calm Calm - N/A   Mist
6:15 AM 44.6 °F 42.1 °F 91% 30.14 in 7.0 mi Calm Calm - N/A   Unknown
6:35 AM 45.7 °F 43.2 °F 91% 30.15 in 7.0 mi Calm Calm - N/A   Unknown
6:55 AM 46.2 °F 43.5 °F 90% 30.16 in 5.0 mi Calm Calm - N/A   Mist
7:15 AM 47.3 °F 44.6 °F 90% 30.16 in 5.0 mi Calm Calm - N/A   Mist
7:35 AM 48.7 °F 46.2 °F 91% 30.16 in 5.0 mi Calm Calm - N/A   Mist
7:55 AM 50.0 °F 46.8 °F 89% 30.18 in 7.0 mi Calm Calm - N/A   Unknown
8:15 AM 50.9 °F 47.3 °F 87% 30.18 in 7.0 mi Calm Calm - N/A   Unknown
8:35 AM 52.3 °F 48.4 °F 86% 30.19 in 7.0 mi Calm Calm - N/A   Unknown
8:55 AM 54.5 °F 48.6 °F 80% 30.19 in 7.0 mi Calm Calm - N/A   Unknown
9:15 AM 57.2 °F 48.7 °F 73% 30.19 in 10.0 mi Calm Calm - N/A   Unknown
9:35 AM 59.0 °F 49.5 °F 71% 30.20 in 10.0 mi South 3.5 mph - N/A   Unknown
9:55 AM 61.0 °F 49.8 °F 67% 30.21 in 10.0 mi SSW 6.9 mph - N/A   Unknown
10:15 AM 63.7 °F 50.0 °F 61% 30.21 in 10.0 mi South 10.4 mph - N/A   Unknown
10:35 AM 64.0 °F 50.2 °F 61% 30.21 in 10.0 mi SW 10.4 mph 16.1 mph N/A   Clear
10:55 AM 65.8 °F 49.8 °F 56% 30.21 in 10.0 mi South 11.5 mph 16.1 mph N/A   Clear
11:15 AM 65.3 °F 48.7 °F 55% 30.20 in 10.0 mi SW 6.9 mph - N/A   Clear
11:35 AM 68.2 °F 50.0 °F 52% 30.20 in 10.0 mi SSW 10.4 mph - N/A   Unknown
11:55 AM 68.9 °F 50.0 °F 51% 30.19 in 10.0 mi SW 8.1 mph 17.3 mph N/A   Unknown
12:15 PM 66.6 °F 49.1 °F 53% 30.18 in 10.0 mi SSW 9.2 mph - N/A   Unknown
12:35 PM 68.5 °F 49.1 °F 50% 30.17 in 10.0 mi South 5.8 mph - N/A   Unknown
12:55 PM 69.4 °F 48.4 °F 47% 30.16 in 10.0 mi South 9.2 mph - N/A   Unknown
1:15 PM 68.2 °F 48.4 °F 49% 30.14 in 10.0 mi SSW 3.5 mph - N/A   Unknown
1:35 PM 68.4 °F 48.6 °F 49% 30.13 in 10.0 mi Calm Calm - N/A   Unknown
1:55 PM 70.9 °F 47.7 °F 44% 30.12 in 10.0 mi SSE 3.5 mph - N/A   Unknown
2:15 PM 69.6 °F 48.4 °F 47% 30.11 in 10.0 mi SSE 6.9 mph - N/A   Unknown
2:35 PM 69.4 °F 48.0 °F 46% 30.11 in 10.0 mi SSE 4.6 mph - N/A   Unknown
2:55 PM 71.1 °F 47.5 °F 43% 30.10 in 10.0 mi SW 4.6 mph - N/A   Unknown
3:15 PM 69.8 °F 48.0 °F 46% 30.10 in 10.0 mi Calm Calm - N/A   Unknown
3:35 PM 72.3 °F 47.7 °F 41% 30.10 in 10.0 mi SE 3.5 mph - N/A   Unknown
3:55 PM 71.6 °F 47.5 °F 42% 30.10 in 10.0 mi South 3.5 mph - N/A   Unknown
4:15 PM 72.0 °F 47.8 °F 42% 30.10 in 10.0 mi South 3.5 mph - N/A   Unknown
4:35 PM 69.8 °F 47.3 °F 45% 30.10 in 10.0 mi SW 3.5 mph - N/A   Unknown
4:55 PM 70.5 °F 47.5 °F 44% 30.09 in 10.0 mi Calm Calm - N/A   Unknown
5:15 PM 69.3 °F 48.9 °F 48% 30.10 in 10.0 mi WSW 4.6 mph - N/A   Unknown
5:35 PM 68.0 °F 49.1 °F 51% 30.10 in 10.0 mi SSW 6.9 mph - N/A   Unknown
5:55 PM 66.6 °F 48.9 °F 53% 30.12 in 10.0 mi SW 4.6 mph - N/A   Unknown
6:15 PM 66.2 °F 49.3 °F 54% 30.13 in 10.0 mi SSW 5.8 mph - N/A   Unknown
6:35 PM 64.8 °F 49.6 °F 58% 30.14 in 10.0 mi SW 6.9 mph - N/A   Unknown
6:55 PM 64.0 °F 50.0 °F 60% 30.15 in 10.0 mi Calm Calm - N/A   Unknown
7:15 PM 63.0 °F 50.0 °F 63% 30.15 in 10.0 mi SSW 5.8 mph - N/A   Unknown
7:35 PM 63.5 °F 50.0 °F 61% 30.16 in 10.0 mi SSW 3.5 mph - N/A   Unknown
7:55 PM 63.3 °F 50.9 °F 64% 30.17 in 10.0 mi SSE 4.6 mph - N/A   Unknown
8:15 PM 62.8 °F 52.2 °F 68% 30.18 in 10.0 mi SSE 5.8 mph - N/A   Unknown
8:35 PM 62.6 °F 52.0 °F 68% 30.18 in 10.0 mi South 6.9 mph - N/A   Unknown
8:55 PM 62.2 °F 52.0 °F 69% 30.19 in 10.0 mi South 8.1 mph - N/A   Unknown
9:15 PM 61.7 °F 51.8 °F 70% 30.19 in 10.0 mi South 4.6 mph - N/A   Unknown
9:35 PM 61.2 °F 52.0 °F 72% 30.18 in 10.0 mi SSE 4.6 mph - N/A   Unknown
9:55 PM 61.0 °F 52.0 °F 72% 30.20 in 10.0 mi South 4.6 mph - N/A   Unknown
10:15 PM 60.8 °F 52.2 °F 73% 30.20 in 10.0 mi South 4.6 mph - N/A   Unknown
10:40 PM 60.3 °F 52.3 °F 75% 30.19 in 10.0 mi Calm Calm - N/A   Unknown
10:55 PM 60.1 °F 52.3 °F 76% 30.19 in 10.0 mi Calm Calm - N/A   Unknown
11:15 PM 59.9 °F 52.7 °F 77% 30.19 in 10.0 mi SSE 3.5 mph - N/A   Unknown
11:30 PM 58.3 °F 52.2 °F 80% 30.20 in 10.0 mi Calm Calm - N/A   Unknown
11:55 PM 58.5 °F 52.7 °F 81% 30.18 in 10.0 mi Calm Calm - N/A   Unknown